| time (UTC) | temp C | wind direction | speed KPH | gust KPH | rain 1hr cm | rain 24hr cm | rain mn cm | humidity % | barometer mb |
| 20260504070119 | 3 | 213 | 0.0 | 0.0 | 0.00 | 0.00 | 0.00 | 79 | 1017.3 |
| 20260504050508 | 5 | 240 | 3.2 | 3.2 | 0.00 | 0.00 | 0.00 | 66 | 1017.7 |
| 20260504050005 | 5 | 239 | 3.2 | 3.2 | 0.00 | 0.00 | 0.00 | 65 | 1017.4 |
| 20260504045500 | 5 | 246 | 1.6 | 3.2 | 0.00 | 0.00 | 0.00 | 64 | 1017.4 |
| 20260504044957 | 5 | 233 | 1.6 | 3.2 | 0.00 | 0.00 | 0.00 | 64 | 1017.5 |
| 20260504044454 | 5 | 224 | 3.2 | 4.8 | 0.00 | 0.00 | 0.00 | 65 | 1017.6 |
| 20260504043951 | 5 | 240 | 1.6 | 1.6 | 0.00 | 0.00 | 0.00 | 65 | 1017.5 |
| 20260504043448 | 5 | 241 | 1.6 | 4.8 | 0.00 | 0.00 | 0.00 | 64 | 1017.5 |
| 20260504042946 | 5 | 234 | 3.2 | 3.2 | 0.00 | 0.00 | 0.00 | 62 | 1017.7 |
| 20260504042442 | 6 | 246 | 1.6 | 3.2 | 0.00 | 0.00 | 0.00 | 61 | 1017.5 |
| 20260504041939 | 6 | 234 | 3.2 | 3.2 | 0.00 | 0.00 | 0.00 | 62 | 1017.6 |
| 20260504041435 | 5 | 233 | 3.2 | 4.8 | 0.00 | 0.00 | 0.00 | 62 | 1017.5 |
| 20260504040931 | 5 | 238 | 1.6 | 3.2 | 0.00 | 0.00 | 0.00 | 61 | 1017.6 |
| 20260504040429 | 5 | 243 | 1.6 | 1.6 | 0.00 | 0.00 | 0.00 | 62 | 1017.7 |
| 20260504035925 | 5 | 233 | 1.6 | 3.2 | 0.00 | 0.00 | 0.00 | 62 | 1017.6 |
| 20260504035423 | 6 | 237 | 0.0 | 0.0 | 0.00 | 0.00 | 0.00 | 59 | 1017.6 |
| 20260504034919 | 6 | 237 | 0.0 | 0.0 | 0.00 | 0.00 | 0.00 | 61 | 1017.5 |
| 20260504034417 | 6 | 237 | 0.0 | 0.0 | 0.00 | 0.00 | 0.00 | 57 | 1017.6 |
| 20260504033914 | 6 | 238 | 1.6 | 3.2 | 0.00 | 0.00 | 0.00 | 59 | 1017.5 |
| 20260504033412 | 6 | 241 | 1.6 | 3.2 | 0.00 | 0.00 | 0.00 | 58 | 1017.5 |
| 20260504032908 | 6 | 236 | 0.0 | 1.6 | 0.00 | 0.00 | 0.00 | 57 | 1017.4 |
| 20260504032405 | 6 | 238 | 1.6 | 1.6 | 0.00 | 0.00 | 0.00 | 57 | 1017.5 |
| 20260504031902 | 6 | 238 | 0.0 | 1.6 | 0.00 | 0.00 | 0.00 | 58 | 1017.5 |
| 20260504031359 | 6 | 242 | 1.6 | 3.2 | 0.00 | 0.00 | 0.00 | 59 | 1017.5 |
| 20260504030855 | 6 | 248 | 1.6 | 3.2 | 0.00 | 0.00 | 0.00 | 60 | 1017.6 |
| 20260504030353 | 7 | 233 | 0.0 | 0.0 | 0.00 | 0.00 | 0.00 | 57 | 1017.6 |
| 20260504025848 | 7 | 233 | 0.0 | 0.0 | 0.00 | 0.00 | 0.00 | 56 | 1017.6 |
| 20260504025345 | 7 | 240 | 0.0 | 1.6 | 0.00 | 0.00 | 0.00 | 58 | 1017.5 |
| 20260504024842 | 6 | 241 | 0.0 | 3.2 | 0.00 | 0.00 | 0.00 | 56 | 1017.4 |
| 20260504024339 | 6 | 233 | 0.0 | 1.6 | 0.00 | 0.00 | 0.00 | 60 | 1017.4 |
| 20260504023836 | 6 | 240 | 1.6 | 3.2 | 0.00 | 0.00 | 0.00 | 60 | 1017.5 |
| 20260504023333 | 6 | 239 | 1.6 | 3.2 | 0.00 | 0.00 | 0.00 | 60 | 1017.3 |
| 20260504022828 | 6 | 242 | 1.6 | 1.6 | 0.00 | 0.00 | 0.00 | 60 | 1017.3 |
| 20260504022325 | 7 | 245 | 1.6 | 3.2 | 0.00 | 0.00 | 0.00 | 60 | 1017.4 |
| 20260504021821 | 7 | 241 | 1.6 | 3.2 | 0.00 | 0.00 | 0.00 | 59 | 1017.5 |
| 20260504021319 | 7 | 239 | 1.6 | 3.2 | 0.00 | 0.00 | 0.00 | 58 | 1017.3 |
| 20260504020816 | 7 | 241 | 1.6 | 3.2 | 0.00 | 0.00 | 0.00 | 57 | 1017.3 |
| 20260504020313 | 7 | 238 | 1.6 | 3.2 | 0.00 | 0.00 | 0.00 | 57 | 1017.1 |
| 20260504015809 | 7 | 237 | 1.6 | 1.6 | 0.00 | 0.00 | 0.00 | 56 | 1017.3 |
| 20260504015305 | 7 | 239 | 1.6 | 3.2 | 0.00 | 0.00 | 0.00 | 56 | 1017.2 |
| 20260504014801 | 7 | 240 | 1.6 | 3.2 | 0.00 | 0.00 | 0.00 | 56 | 1017.0 |
| 20260504014257 | 8 | 240 | 1.6 | 3.2 | 0.00 | 0.00 | 0.00 | 54 | 1017.0 |
| 20260504013755 | 8 | 244 | 0.0 | 0.0 | 0.00 | 0.00 | 0.00 | 52 | 1017.1 |
| 20260504013253 | 8 | 244 | 0.0 | 0.0 | 0.00 | 0.00 | 0.00 | 51 | 1016.9 |
| 20260504012749 | 8 | 244 | 0.0 | 0.0 | 0.00 | 0.00 | 0.00 | 50 | 1016.8 |
| 20260504012247 | 8 | 244 | 0.0 | 1.6 | 0.00 | 0.00 | 0.00 | 52 | 1016.8 |
| 20260504011744 | 8 | 244 | 1.6 | 3.2 | 0.00 | 0.00 | 0.00 | 53 | 1016.9 |
| 20260504011240 | 8 | 247 | 1.6 | 1.6 | 0.00 | 0.00 | 0.00 | 55 | 1016.8 |
| 20260504010736 | 10 | 258 | 1.6 | 1.6 | 0.00 | 0.00 | 0.00 | 48 | 1016.8 |
| 20260504010232 | 11 | 275 | 0.0 | 1.6 | 0.00 | 0.00 | 0.00 | 41 | 1016.8 |
| 20260504005729 | 11 | 291 | 1.6 | 1.6 | 0.00 | 0.00 | 0.00 | 39 | 1017.0 |
| 20260504005226 | 11 | 310 | 0.0 | 0.0 | 0.00 | 0.00 | 0.00 | 40 | 1016.9 |
| 20260504004724 | 11 | 311 | 1.6 | 1.6 | 0.00 | 0.00 | 0.00 | 40 | 1016.7 |
| 20260504004220 | 11 | 321 | 0.0 | 0.0 | 0.00 | 0.00 | 0.00 | 41 | 1016.7 |
| 20260504003717 | 11 | 325 | 0.0 | 0.0 | 0.00 | 0.00 | 0.00 | 38 | 1016.6 |
| 20260504003214 | 12 | 325 | 3.2 | 3.2 | 0.00 | 0.00 | 0.00 | 36 | 1016.7 |
| 20260504002711 | 12 | 325 | 3.2 | 3.2 | 0.00 | 0.00 | 0.00 | 36 | 1016.6 |
| 20260504002208 | 12 | 344 | 3.2 | 3.2 | 0.00 | 0.00 | 0.00 | 35 | 1016.5 |
| 20260504001706 | 12 | 342 | 1.6 | 3.2 | 0.00 | 0.00 | 0.00 | 35 | 1016.4 |
| 20260504001202 | 12 | 351 | 3.2 | 3.2 | 0.00 | 0.00 | 0.00 | 37 | 1016.5 |
| 20260504000659 | 12 | 345 | 4.8 | 4.8 | 0.00 | 0.00 | 0.00 | 35 | 1016.5 |
| 20260504000156 | 12 | 337 | 4.8 | 4.8 | 0.00 | 0.00 | 0.00 | 34 | 1016.4 |
| 20260503235654 | 12 | 8 | 1.6 | 6.4 | 0.00 | 0.00 | 0.00 | 37 | 1016.4 |
| 20260503235151 | 13 | 4 | 4.8 | 4.8 | 0.00 | 0.00 | 0.00 | 34 | 1016.4 |
| 20260503234649 | 13 | 21 | 1.6 | 3.2 | 0.00 | 0.00 | 0.00 | 35 | 1016.3 |
| 20260503234147 | 13 | 12 | 6.4 | 12.9 | 0.00 | 0.00 | 0.00 | 32 | 1016.3 |
| 20260503233643 | 13 | 15 | 4.8 | 11.3 | 0.00 | 0.00 | 0.00 | 33 | 1016.4 |
| 20260503233139 | 13 | 340 | 4.8 | 9.7 | 0.00 | 0.00 | 0.00 | 33 | 1016.3 |
| 20260503232636 | 13 | 356 | 9.7 | 11.3 | 0.00 | 0.00 | 0.00 | 33 | 1016.4 |
| 20260503232133 | 14 | 334 | 8.0 | 12.9 | 0.00 | 0.00 | 0.00 | 34 | 1016.3 |
| 20260503231631 | 14 | 324 | 6.4 | 11.3 | 0.00 | 0.00 | 0.00 | 32 | 1016.1 |
| 20260503231127 | 14 | 29 | 4.8 | 11.3 | 0.00 | 0.00 | 0.00 | 32 | 1016.1 |
| 20260503230625 | 15 | 311 | 8.0 | 16.1 | 0.00 | 0.00 | 0.00 | 34 | 1016.4 |
| 20260503230122 | 14 | 22 | 9.7 | 12.9 | 0.00 | 0.00 | 0.00 | 31 | 1016.2 |
| 20260503225619 | 15 | 24 | 6.4 | 11.3 | 0.00 | 0.00 | 0.00 | 30 | 1016.2 |
| 20260503225119 | 15 | 31 | 8.0 | 12.9 | 0.00 | 0.00 | 0.00 | 30 | 1016.2 |
| 20260503224616 | 15 | 358 | 4.8 | 9.7 | 0.00 | 0.00 | 0.00 | 32 | 1016.2 |
| 20260503224114 | 15 | 43 | 6.4 | 17.7 | 0.00 | 0.00 | 0.00 | 34 | 1015.8 |
| 20260503223612 | 15 | 35 | 6.4 | 17.7 | 0.00 | 0.00 | 0.00 | 32 | 1016.0 |
| 20260503223107 | 15 | 356 | 4.8 | 12.9 | 0.00 | 0.00 | 0.00 | 33 | 1016.1 |
| 20260503222606 | 15 | 8 | 6.4 | 6.4 | 0.00 | 0.00 | 0.00 | 30 | 1016.2 |
| 20260503222103 | 15 | 22 | 4.8 | 9.7 | 0.00 | 0.00 | 0.00 | 29 | 1016.2 |
| 20260503221601 | 15 | 16 | 8.0 | 12.9 | 0.00 | 0.00 | 0.00 | 30 | 1016.2 |
| 20260503221058 | 15 | 345 | 12.9 | 14.5 | 0.00 | 0.00 | 0.00 | 29 | 1016.0 |
| 20260503220554 | 15 | 28 | 11.3 | 24.1 | 0.00 | 0.00 | 0.00 | 28 | 1016.3 |
| 20260503220052 | 15 | 340 | 11.3 | 25.7 | 0.00 | 0.00 | 0.00 | 31 | 1016.5 |
| 20260503215549 | 16 | 345 | 8.0 | 17.7 | 0.00 | 0.00 | 0.00 | 32 | 1016.0 |
| 20260503215046 | 16 | 355 | 6.4 | 9.7 | 0.00 | 0.00 | 0.00 | 29 | 1016.2 |
| 20260503214544 | 16 | 340 | 8.0 | 14.5 | 0.00 | 0.00 | 0.00 | 28 | 1016.2 |
| 20260503214040 | 15 | 49 | 12.9 | 20.9 | 0.00 | 0.00 | 0.00 | 28 | 1016.2 |
| 20260503213539 | 15 | 347 | 11.3 | 17.7 | 0.00 | 0.00 | 0.00 | 30 | 1016.0 |
| 20260503213035 | 15 | 43 | 16.1 | 17.7 | 0.00 | 0.00 | 0.00 | 29 | 1016.2 |
| 20260503212532 | 15 | 56 | 4.8 | 14.5 | 0.00 | 0.00 | 0.00 | 31 | 1016.1 |
| 20260503212030 | 15 | 16 | 6.4 | 22.5 | 0.00 | 0.00 | 0.00 | 33 | 1016.1 |
| 20260503211526 | 15 | 13 | 14.5 | 24.1 | 0.00 | 0.00 | 0.00 | 29 | 1016.1 |
| 20260503211022 | 15 | 44 | 9.7 | 14.5 | 0.00 | 0.00 | 0.00 | 30 | 1016.0 |
| 20260503210519 | 15 | 337 | 14.5 | 17.7 | 0.00 | 0.00 | 0.00 | 31 | 1016.5 |
| 20260503210015 | 15 | 2 | 16.1 | 20.9 | 0.00 | 0.00 | 0.00 | 28 | 1016.3 |
| 20260503205512 | 15 | 19 | 12.9 | 25.7 | 0.00 | 0.00 | 0.00 | 30 | 1016.4 |
| 20260503205008 | 15 | 351 | 9.7 | 20.9 | 0.00 | 0.00 | 0.00 | 29 | 1016.2 |
| 20260503204505 | 15 | 53 | 17.7 | 27.4 | 0.00 | 0.00 | 0.00 | 29 | 1016.1 |
| 20260503204001 | 15 | 22 | 12.9 | 17.7 | 0.00 | 0.00 | 0.00 | 31 | 1016.3 |
| 20260503203459 | 14 | 343 | 16.1 | 24.1 | 0.00 | 0.00 | 0.00 | 33 | 1016.6 |
| 20260503202955 | 15 | 56 | 12.9 | 24.1 | 0.00 | 0.00 | 0.00 | 30 | 1016.4 |
| 20260503202454 | 15 | 49 | 22.5 | 29.0 | 0.00 | 0.00 | 0.00 | 30 | 1016.2 |
| 20260503201952 | 15 | 5 | 8.0 | 17.7 | 0.00 | 0.00 | 0.00 | 34 | 1016.5 |
| 20260503201449 | 15 | 20 | 14.5 | 24.1 | 0.00 | 0.00 | 0.00 | 28 | 1016.3 |
| 20260503200947 | 15 | 22 | 9.7 | 24.1 | 0.00 | 0.00 | 0.00 | 32 | 1016.6 |
| 20260503200443 | 15 | 17 | 9.7 | 20.9 | 0.00 | 0.00 | 0.00 | 32 | 1016.8 |
| 20260503195940 | 15 | 332 | 20.9 | 25.7 | 0.00 | 0.00 | 0.00 | 32 | 1016.7 |
| 20260503195437 | 15 | 40 | 8.0 | 12.9 | 0.00 | 0.00 | 0.00 | 35 | 1016.7 |
| 20260503194933 | 14 | 326 | 11.3 | 22.5 | 0.00 | 0.00 | 0.00 | 33 | 1016.8 |
| 20260503194430 | 15 | 347 | 9.7 | 16.1 | 0.00 | 0.00 | 0.00 | 29 | 1016.8 |
| 20260503193926 | 15 | 46 | 4.8 | 11.3 | 0.00 | 0.00 | 0.00 | 30 | 1017.0 |
| 20260503193421 | 13 | 13 | 8.0 | 25.7 | 0.00 | 0.00 | 0.00 | 34 | 1017.0 |
| 20260503192917 | 13 | 64 | 8.0 | 17.7 | 0.00 | 0.00 | 0.00 | 35 | 1017.2 |
| 20260503192414 | 14 | 39 | 12.9 | 27.4 | 0.00 | 0.00 | 0.00 | 36 | 1017.0 |
| 20260503191909 | 15 | 211 | 3.2 | 9.7 | 0.00 | 0.00 | 0.00 | 36 | 1017.0 |
| 20260503191408 | 13 | 357 | 6.4 | 16.1 | 0.00 | 0.00 | 0.00 | 33 | 1017.0 |
| 20260503190903 | 13 | 47 | 4.8 | 11.3 | 0.00 | 0.00 | 0.00 | 32 | 1017.2 |
| 20260503190401 | 13 | 32 | 8.0 | 20.9 | 0.00 | 0.00 | 0.00 | 32 | 1017.3 |
| 20260503185857 | 13 | 356 | 6.4 | 17.7 | 0.00 | 0.00 | 0.00 | 32 | 1017.3 |
| 20260503185354 | 13 | 37 | 17.7 | 22.5 | 0.00 | 0.00 | 0.00 | 33 | 1017.3 |
| 20260503184854 | 13 | 58 | 12.9 | 17.7 | 0.00 | 0.00 | 0.00 | 35 | 1017.2 |
| 20260503184350 | 14 | 19 | 16.1 | 20.9 | 0.00 | 0.00 | 0.00 | 35 | 1017.7 |
| 20260503183846 | 13 | 352 | 14.5 | 17.7 | 0.00 | 0.00 | 0.00 | 33 | 1017.5 |
| 20260503183343 | 13 | 66 | 24.1 | 30.6 | 0.00 | 0.00 | 0.00 | 33 | 1017.5 |
| 20260503182840 | 13 | 48 | 9.7 | 16.1 | 0.00 | 0.00 | 0.00 | 35 | 1017.5 |
| 20260503182340 | 13 | 45 | 11.3 | 27.4 | 0.00 | 0.00 | 0.00 | 37 | 1017.6 |
| 20260503181836 | 13 | 332 | 8.0 | 20.9 | 0.00 | 0.00 | 0.00 | 37 | 1017.6 |
| 20260503181333 | 13 | 56 | 17.7 | 27.4 | 0.00 | 0.00 | 0.00 | 34 | 1017.7 |
| 20260503180829 | 13 | 12 | 9.7 | 37.0 | 0.00 | 0.00 | 0.00 | 34 | 1017.7 |
| 20260503180328 | 13 | 31 | 12.9 | 17.7 | 0.00 | 0.00 | 0.00 | 34 | 1017.8 |
| 20260503175824 | 12 | 56 | 16.1 | 17.7 | 0.00 | 0.00 | 0.00 | 35 | 1017.6 |
| 20260503175322 | 13 | 112 | 9.7 | 12.9 | 0.00 | 0.00 | 0.00 | 34 | 1017.8 |
| 20260503174817 | 13 | 26 | 12.9 | 17.7 | 0.00 | 0.00 | 0.00 | 32 | 1017.9 |
| 20260503174316 | 13 | 3 | 16.1 | 22.5 | 0.00 | 0.00 | 0.00 | 33 | 1018.0 |
| 20260503173811 | 12 | 60 | 6.4 | 17.7 | 0.00 | 0.00 | 0.00 | 33 | 1017.9 |
| 20260503173307 | 13 | 54 | 19.3 | 22.5 | 0.00 | 0.00 | 0.00 | 35 | 1018.0 |
| 20260503172804 | 12 | 357 | 20.9 | 25.7 | 0.00 | 0.00 | 0.00 | 33 | 1018.0 |
| 20260503172301 | 12 | 54 | 19.3 | 25.7 | 0.00 | 0.00 | 0.00 | 36 | 1018.0 |
| 20260503171757 | 12 | 57 | 17.7 | 22.5 | 0.00 | 0.00 | 0.00 | 37 | 1018.1 |
| 20260503171254 | 12 | 60 | 14.5 | 22.5 | 0.00 | 0.00 | 0.00 | 34 | 1018.1 |
| 20260503170752 | 12 | 28 | 9.7 | 12.9 | 0.00 | 0.00 | 0.00 | 35 | 1018.2 |
| 20260503170248 | 12 | 340 | 17.7 | 24.1 | 0.00 | 0.00 | 0.00 | 37 | 1018.3 |
| 20260503160210 | 10 | 54 | 17.7 | 17.7 | 0.00 | 0.00 | 0.00 | 42 | 1019.0 |
| 20260503150641 | 10 | 28 | 17.7 | 20.9 | 0.00 | 0.00 | 0.00 | 44 | 1019.6 |
| 20260503150136 | 9 | 62 | 14.5 | 17.7 | 0.00 | 0.00 | 0.00 | 46 | 1019.5 |
| 20260503131030 | 6 | 355 | 3.2 | 11.3 | 0.00 | 0.00 | 0.00 | 61 | 1019.8 |
| 20260503130527 | 5 | 320 | 3.2 | 9.7 | 0.00 | 0.00 | 0.00 | 61 | 1019.8 |
| 20260503110418 | 2 | 3 | 3.2 | 3.2 | 0.00 | 0.00 | 0.00 | 71 | 1019.3 |
| 20260503090320 | 2 | 37 | 1.6 | 3.2 | 0.00 | 0.00 | 0.00 | 71 | 1018.2 |
| 20260503081248 | 2 | 30 | 1.6 | 6.4 | 0.00 | 0.00 | 0.00 | 70 | 1018.1 |
| 20260503080743 | 2 | 2 | 6.4 | 9.7 | 0.00 | 0.00 | 0.00 | 69 | 1017.9 |
| 20260503080242 | 2 | 347 | 4.8 | 4.8 | 0.00 | 0.00 | 0.00 | 71 | 1017.9 |
| 20260503072718 | 3 | 9 | 1.6 | 3.2 | 0.00 | 0.00 | 0.00 | 71 | 1017.6 |
| 20260503072214 | 3 | 19 | 1.6 | 3.2 | 0.00 | 0.00 | 0.00 | 70 | 1017.6 |